Year,Month,Day,Hour,Minute,Value (Times are PST for temperature in C)
2009,10,06,00,00,8.70
2009,10,06,00,01,8.70
2009,10,06,00,02,8.70
2009,10,06,00,03,8.70
2009,10,06,00,04,8.70
2009,10,06,00,05,8.70
2009,10,06,00,06,8.70
2009,10,06,00,07,8.70
2009,10,06,00,08,8.70
2009,10,06,00,09,8.70
2009,10,06,00,10,8.70
2009,10,06,00,11,8.70
2009,10,06,00,12,8.70
2009,10,06,00,13,8.70
2009,10,06,00,14,8.70
2009,10,06,00,15,8.70
2009,10,06,00,16,8.60
2009,10,06,00,17,8.60
2009,10,06,00,18,8.60
2009,10,06,00,19,8.50
2009,10,06,00,20,8.50
2009,10,06,00,21,8.50
2009,10,06,00,22,8.50
2009,10,06,00,23,8.40
2009,10,06,00,24,8.40
2009,10,06,00,25,8.40
2009,10,06,00,26,8.40
2009,10,06,00,27,8.50
2009,10,06,00,28,8.50
2009,10,06,00,29,8.50
2009,10,06,00,30,8.60
2009,10,06,00,31,8.60
2009,10,06,00,32,8.60
2009,10,06,00,33,8.60
2009,10,06,00,34,8.70
2009,10,06,00,35,8.70
2009,10,06,00,36,8.70
2009,10,06,00,37,8.70
2009,10,06,00,38,8.70
2009,10,06,00,39,8.70
2009,10,06,00,40,8.70
2009,10,06,00,41,8.60
2009,10,06,00,42,8.60
2009,10,06,00,43,8.60
2009,10,06,00,44,8.60
2009,10,06,00,45,8.50
2009,10,06,00,46,8.50
2009,10,06,00,47,8.50
2009,10,06,00,48,8.40
2009,10,06,00,49,8.40
2009,10,06,00,50,8.40
2009,10,06,00,51,8.30
2009,10,06,00,52,8.30
2009,10,06,00,53,8.20
2009,10,06,00,54,8.20
2009,10,06,00,55,8.20
2009,10,06,00,56,8.10
2009,10,06,00,57,8.10
2009,10,06,00,58,8.00
2009,10,06,00,59,8.00
2009,10,06,01,00,8.00
2009,10,06,01,01,7.90
2009,10,06,01,02,7.90
2009,10,06,01,03,7.90
2009,10,06,01,04,7.90
2009,10,06,01,05,7.80
2009,10,06,01,06,7.80
2009,10,06,01,07,7.80
2009,10,06,01,08,7.80
2009,10,06,01,09,7.80
2009,10,06,01,10,7.80
2009,10,06,01,11,7.80
2009,10,06,01,12,7.70
2009,10,06,01,13,7.70
2009,10,06,01,14,7.70
2009,10,06,01,15,7.70
2009,10,06,01,16,7.60
2009,10,06,01,17,7.60
2009,10,06,01,18,7.60
2009,10,06,01,19,7.60
2009,10,06,01,20,7.50
2009,10,06,01,21,7.50
2009,10,06,01,22,7.50
2009,10,06,01,23,7.50
2009,10,06,01,24,7.40
2009,10,06,01,25,7.40
2009,10,06,01,26,7.40
2009,10,06,01,27,7.40
2009,10,06,01,28,7.40
2009,10,06,01,29,7.40
2009,10,06,01,30,7.40
2009,10,06,01,31,7.40
2009,10,06,01,32,7.40
2009,10,06,01,33,7.40
2009,10,06,01,34,7.50
2009,10,06,01,35,7.50
2009,10,06,01,36,7.50
2009,10,06,01,37,7.60
2009,10,06,01,38,7.60
2009,10,06,01,39,7.60
2009,10,06,01,40,7.70
2009,10,06,01,41,7.70
2009,10,06,01,42,7.70
2009,10,06,01,43,7.70
2009,10,06,01,44,7.60
2009,10,06,01,45,7.60
2009,10,06,01,46,7.60
2009,10,06,01,47,7.60
2009,10,06,01,48,7.60
2009,10,06,01,49,7.60
2009,10,06,01,50,7.50
2009,10,06,01,51,7.50
2009,10,06,01,52,7.50
2009,10,06,01,53,7.50
2009,10,06,01,54,7.50
2009,10,06,01,55,7.40
2009,10,06,01,56,7.40
2009,10,06,01,57,7.40
2009,10,06,01,58,7.40
2009,10,06,01,59,7.30
2009,10,06,02,00,7.30
2009,10,06,02,01,7.30
2009,10,06,02,02,7.30
2009,10,06,02,03,7.30
2009,10,06,02,04,7.20
2009,10,06,02,05,7.20
2009,10,06,02,06,7.20
2009,10,06,02,07,7.20
2009,10,06,02,08,7.10
2009,10,06,02,09,7.10
2009,10,06,02,10,7.10
2009,10,06,02,11,7.10
2009,10,06,02,12,7.10
2009,10,06,02,13,7.00
2009,10,06,02,14,7.00
2009,10,06,02,15,7.00
2009,10,06,02,16,7.00
2009,10,06,02,17,7.00
2009,10,06,02,18,7.00
2009,10,06,02,19,7.00
2009,10,06,02,20,7.00
2009,10,06,02,21,7.00
2009,10,06,02,22,6.90
2009,10,06,02,23,6.90
2009,10,06,02,24,6.90
2009,10,06,02,25,6.90
2009,10,06,02,26,6.80
2009,10,06,02,27,6.80
2009,10,06,02,28,6.80
2009,10,06,02,29,6.80
2009,10,06,02,30,6.80
2009,10,06,02,31,6.80
2009,10,06,02,32,6.80
2009,10,06,02,33,6.70
2009,10,06,02,34,6.70
2009,10,06,02,35,6.70
2009,10,06,02,36,6.70
2009,10,06,02,37,6.70
2009,10,06,02,38,6.70
2009,10,06,02,39,6.60
2009,10,06,02,40,6.60
2009,10,06,02,41,6.60
2009,10,06,02,42,6.60
2009,10,06,02,43,6.60
2009,10,06,02,44,6.60
2009,10,06,02,45,6.50
2009,10,06,02,46,6.40
2009,10,06,02,47,6.40
2009,10,06,02,48,6.40
2009,10,06,02,49,6.40
2009,10,06,02,50,6.40
2009,10,06,02,51,6.40
2009,10,06,02,52,6.30
2009,10,06,02,53,6.30
2009,10,06,02,54,6.30
2009,10,06,02,55,6.20
2009,10,06,02,56,6.20
2009,10,06,02,57,6.20
2009,10,06,02,58,6.20
2009,10,06,02,59,6.20
2009,10,06,03,00,6.20
2009,10,06,03,01,6.10
2009,10,06,03,02,6.10
2009,10,06,03,03,6.10
2009,10,06,03,04,6.00
2009,10,06,03,05,6.00
2009,10,06,03,06,6.00
2009,10,06,03,07,6.00
2009,10,06,03,08,6.00
2009,10,06,03,09,6.00
2009,10,06,03,10,6.00
2009,10,06,03,11,5.90
2009,10,06,03,12,5.90
2009,10,06,03,13,5.90
2009,10,06,03,14,5.90
2009,10,06,03,15,5.90
2009,10,06,03,16,5.80
2009,10,06,03,17,5.80
2009,10,06,03,18,5.80
2009,10,06,03,19,5.70
2009,10,06,03,20,5.70
2009,10,06,03,21,5.70
2009,10,06,03,22,5.70
2009,10,06,03,23,5.70
2009,10,06,03,24,5.70
2009,10,06,03,25,5.70
2009,10,06,03,26,5.70
2009,10,06,03,27,5.60
2009,10,06,03,28,5.60
2009,10,06,03,29,5.50
2009,10,06,03,30,5.50
2009,10,06,03,31,5.50
2009,10,06,03,32,5.50
2009,10,06,03,33,5.40
2009,10,06,03,34,5.40
2009,10,06,03,35,5.40
2009,10,06,03,36,5.40
2009,10,06,03,37,5.40
2009,10,06,03,38,5.40
2009,10,06,03,39,5.30
2009,10,06,03,40,5.30
2009,10,06,03,41,5.30
2009,10,06,03,42,5.30
2009,10,06,03,43,5.30
2009,10,06,03,44,5.30
2009,10,06,03,45,5.30
2009,10,06,03,46,5.30
2009,10,06,03,47,5.30
2009,10,06,03,48,5.30
2009,10,06,03,49,5.20
2009,10,06,03,50,5.20
2009,10,06,03,51,5.20
2009,10,06,03,52,5.20
2009,10,06,03,53,5.10
2009,10,06,03,54,5.10
2009,10,06,03,55,5.10
2009,10,06,03,56,5.10
2009,10,06,03,57,5.10
2009,10,06,03,58,5.10
2009,10,06,03,59,5.10
2009,10,06,04,00,5.10
2009,10,06,04,01,5.10
2009,10,06,04,02,5.10
2009,10,06,04,03,5.10
2009,10,06,04,04,5.10
2009,10,06,04,05,5.10
2009,10,06,04,06,5.10
2009,10,06,04,07,5.10
2009,10,06,04,08,5.10
2009,10,06,04,09,5.10
2009,10,06,04,10,5.10
2009,10,06,04,11,5.10
2009,10,06,04,12,5.00
2009,10,06,04,13,4.90
2009,10,06,04,14,4.90
2009,10,06,04,15,4.90
2009,10,06,04,16,4.90
2009,10,06,04,17,4.90
2009,10,06,04,18,4.90
2009,10,06,04,19,4.90
2009,10,06,04,20,4.90
2009,10,06,04,21,4.90
2009,10,06,04,22,4.90
2009,10,06,04,23,4.90
2009,10,06,04,24,4.90
2009,10,06,04,25,4.80
2009,10,06,04,26,4.80
2009,10,06,04,27,4.80
2009,10,06,04,28,4.80
2009,10,06,04,29,4.80
2009,10,06,04,30,4.80
2009,10,06,04,31,4.80
2009,10,06,04,32,4.80
2009,10,06,04,33,4.70
2009,10,06,04,34,4.70
2009,10,06,04,35,4.70
2009,10,06,04,36,4.70
2009,10,06,04,37,4.70
2009,10,06,04,38,4.70
2009,10,06,04,39,4.70
2009,10,06,04,40,4.70
2009,10,06,04,41,4.60
2009,10,06,04,42,4.60
2009,10,06,04,43,4.60
2009,10,06,04,44,4.60
2009,10,06,04,45,4.60
2009,10,06,04,46,4.60
2009,10,06,04,47,4.60
2009,10,06,04,48,4.60
2009,10,06,04,49,4.60
2009,10,06,04,50,4.50
2009,10,06,04,51,4.50
2009,10,06,04,52,4.50
2009,10,06,04,53,4.50
2009,10,06,04,54,4.50
2009,10,06,04,55,4.40
2009,10,06,04,56,4.40
2009,10,06,04,57,4.40
2009,10,06,04,58,4.40
2009,10,06,04,59,4.40
2009,10,06,05,00,4.40
2009,10,06,05,01,4.40
2009,10,06,05,02,4.40
2009,10,06,05,03,4.40
2009,10,06,05,04,4.40
2009,10,06,05,05,4.40
2009,10,06,05,06,4.40
2009,10,06,05,07,4.40
2009,10,06,05,08,4.40
2009,10,06,05,09,4.40
2009,10,06,05,10,4.40
2009,10,06,05,11,4.40
2009,10,06,05,12,4.40
2009,10,06,05,13,4.40
2009,10,06,05,14,4.40
2009,10,06,05,15,4.40
2009,10,06,05,16,4.40
2009,10,06,05,17,4.40
2009,10,06,05,18,4.40
2009,10,06,05,19,4.40
2009,10,06,05,20,4.30
2009,10,06,05,21,4.30
2009,10,06,05,22,4.30
2009,10,06,05,23,4.30
2009,10,06,05,24,4.20
2009,10,06,05,25,4.20
2009,10,06,05,26,4.20
2009,10,06,05,27,4.20
2009,10,06,05,28,4.20
2009,10,06,05,29,4.20
2009,10,06,05,30,4.20
2009,10,06,05,31,4.20
2009,10,06,05,32,4.20
2009,10,06,05,33,4.20
2009,10,06,05,34,4.20
2009,10,06,05,35,4.20
2009,10,06,05,36,4.20
2009,10,06,05,37,4.10
2009,10,06,05,38,4.10
2009,10,06,05,39,4.10
2009,10,06,05,40,4.10
2009,10,06,05,41,4.10
2009,10,06,05,42,4.10
2009,10,06,05,43,4.10
2009,10,06,05,44,4.10
2009,10,06,05,45,4.00
2009,10,06,05,46,4.00
2009,10,06,05,47,4.00
2009,10,06,05,48,4.10
2009,10,06,05,49,4.10
2009,10,06,05,50,4.10
2009,10,06,05,51,4.10
2009,10,06,05,52,4.10
2009,10,06,05,53,4.20
2009,10,06,05,54,4.20
2009,10,06,05,55,4.20
2009,10,06,05,56,4.10
2009,10,06,05,57,4.10
2009,10,06,05,58,4.10
2009,10,06,05,59,4.10
2009,10,06,06,00,4.10
2009,10,06,06,01,4.10
2009,10,06,06,02,4.00
2009,10,06,06,03,4.00
2009,10,06,06,04,4.00
2009,10,06,06,05,4.00
2009,10,06,06,06,4.00
2009,10,06,06,07,4.00
2009,10,06,06,08,4.00
2009,10,06,06,09,3.90
2009,10,06,06,10,3.90
2009,10,06,06,11,3.90
2009,10,06,06,12,3.90
2009,10,06,06,13,3.90
2009,10,06,06,14,3.90
2009,10,06,06,15,3.80
2009,10,06,06,16,3.80
2009,10,06,06,17,3.80
2009,10,06,06,18,3.80
2009,10,06,06,19,3.80
2009,10,06,06,20,3.80
2009,10,06,06,21,3.80
2009,10,06,06,22,3.80
2009,10,06,06,23,3.80
2009,10,06,06,24,3.80
2009,10,06,06,25,3.80
2009,10,06,06,26,3.80
2009,10,06,06,27,3.80
2009,10,06,06,28,3.80
2009,10,06,06,29,3.80
2009,10,06,06,30,3.80
2009,10,06,06,31,3.80
2009,10,06,06,32,3.80
2009,10,06,06,33,3.80
2009,10,06,06,34,3.80
2009,10,06,06,35,3.80
2009,10,06,06,36,3.70
2009,10,06,06,37,3.70
2009,10,06,06,38,3.70
2009,10,06,06,39,3.60
2009,10,06,06,40,3.60
2009,10,06,06,41,3.60
2009,10,06,06,42,3.60
2009,10,06,06,43,3.60
2009,10,06,06,44,3.60
2009,10,06,06,45,3.60
2009,10,06,06,46,3.60
2009,10,06,06,47,3.60
2009,10,06,06,48,3.60
2009,10,06,06,49,3.60
2009,10,06,06,50,3.60
2009,10,06,06,51,3.60
2009,10,06,06,52,3.60
2009,10,06,06,53,3.60
2009,10,06,06,54,3.60
2009,10,06,06,55,3.60
2009,10,06,06,56,3.60
2009,10,06,06,57,3.60
2009,10,06,06,58,3.60
2009,10,06,06,59,3.60
2009,10,06,07,00,3.50
2009,10,06,07,01,3.50
2009,10,06,07,02,3.50
2009,10,06,07,03,3.50
2009,10,06,07,04,3.50
2009,10,06,07,05,3.50
2009,10,06,07,06,3.50
2009,10,06,07,07,3.50
2009,10,06,07,08,3.50
2009,10,06,07,09,3.50
2009,10,06,07,10,3.50
2009,10,06,07,11,3.50
2009,10,06,07,12,3.60
2009,10,06,07,13,3.60
2009,10,06,07,14,3.60
2009,10,06,07,15,3.60
2009,10,06,07,16,3.70
2009,10,06,07,17,3.70
2009,10,06,07,18,3.70
2009,10,06,07,19,3.80
2009,10,06,07,20,3.80
2009,10,06,07,21,3.80
2009,10,06,07,22,3.80
2009,10,06,07,23,3.80
2009,10,06,07,24,3.80
2009,10,06,07,25,3.80
2009,10,06,07,26,3.80
2009,10,06,07,27,3.80
2009,10,06,07,28,3.80
2009,10,06,07,29,3.80
2009,10,06,07,30,3.80
2009,10,06,07,31,3.80
2009,10,06,07,32,3.80
2009,10,06,07,33,3.80
2009,10,06,07,34,3.80
2009,10,06,07,35,3.80
2009,10,06,07,36,3.90
2009,10,06,07,37,3.90
2009,10,06,07,38,3.90
2009,10,06,07,39,3.90
2009,10,06,07,40,3.90
2009,10,06,07,41,3.90
2009,10,06,07,42,3.90
2009,10,06,07,43,3.90
2009,10,06,07,44,3.90
2009,10,06,07,45,3.90
2009,10,06,07,46,3.90
2009,10,06,07,47,3.90
2009,10,06,07,48,3.80
2009,10,06,07,49,3.80
2009,10,06,07,50,3.80
2009,10,06,07,51,3.80
2009,10,06,07,52,3.80
2009,10,06,07,53,3.80
2009,10,06,07,54,3.90
2009,10,06,07,55,3.90
2009,10,06,07,56,3.90
2009,10,06,07,57,4.00
2009,10,06,07,58,4.00
2009,10,06,07,59,4.00
2009,10,06,08,00,4.00
2009,10,06,08,01,4.10
2009,10,06,08,02,4.10
2009,10,06,08,03,4.10
2009,10,06,08,04,4.10
2009,10,06,08,05,4.20
2009,10,06,08,06,4.20
2009,10,06,08,07,4.20
2009,10,06,08,08,4.30
2009,10,06,08,09,4.30
2009,10,06,08,10,4.40
2009,10,06,08,11,4.40
2009,10,06,08,12,4.50
2009,10,06,08,13,4.50
2009,10,06,08,14,4.60
2009,10,06,08,15,4.60
2009,10,06,08,16,4.60
2009,10,06,08,17,4.60
2009,10,06,08,18,4.70
2009,10,06,08,19,4.70
2009,10,06,08,20,4.80
2009,10,06,08,21,4.80
2009,10,06,08,22,4.90
2009,10,06,08,23,4.90
2009,10,06,08,24,4.90
2009,10,06,08,25,5.00
2009,10,06,08,26,5.10
2009,10,06,08,27,5.10
2009,10,06,08,28,5.20
2009,10,06,08,29,5.30
2009,10,06,08,30,5.30
2009,10,06,08,31,5.30
2009,10,06,08,32,5.40
2009,10,06,08,33,5.40
2009,10,06,08,34,5.50
2009,10,06,08,35,5.60
2009,10,06,08,36,5.60
2009,10,06,08,37,5.70
2009,10,06,08,38,5.70
2009,10,06,08,39,5.80
2009,10,06,08,40,5.90
2009,10,06,08,41,6.00
2009,10,06,08,42,6.00
2009,10,06,08,43,6.10
2009,10,06,08,44,6.20
2009,10,06,08,45,6.30
2009,10,06,08,46,6.40
2009,10,06,08,47,6.40
2009,10,06,08,48,6.50
2009,10,06,08,49,6.60
2009,10,06,08,50,6.70
2009,10,06,08,51,6.70
2009,10,06,08,52,6.80
2009,10,06,08,53,6.80
2009,10,06,08,54,6.90
2009,10,06,08,55,6.90
2009,10,06,08,56,7.00
2009,10,06,08,57,7.10
2009,10,06,08,58,7.10
2009,10,06,08,59,7.20
2009,10,06,09,00,7.20
2009,10,06,09,01,7.30
2009,10,06,09,02,7.30
2009,10,06,09,03,7.40
2009,10,06,09,04,7.40
2009,10,06,09,05,7.50
2009,10,06,09,06,7.60
2009,10,06,09,07,7.60
2009,10,06,09,08,7.70
2009,10,06,09,09,7.80
2009,10,06,09,10,7.90
2009,10,06,09,11,8.00
2009,10,06,09,12,8.00
2009,10,06,09,13,8.10
2009,10,06,09,14,8.20
2009,10,06,09,15,8.40
2009,10,06,09,16,8.50
2009,10,06,09,17,8.60
2009,10,06,09,18,8.70
2009,10,06,09,19,8.90
2009,10,06,09,20,9.00
2009,10,06,09,21,9.10
2009,10,06,09,22,9.20
2009,10,06,09,23,9.30
2009,10,06,09,24,9.40
2009,10,06,09,25,9.50
2009,10,06,09,26,9.60
2009,10,06,09,27,9.70
2009,10,06,09,28,9.80
2009,10,06,09,29,9.90
2009,10,06,09,30,10.00
2009,10,06,09,31,10.10
2009,10,06,09,32,10.30
2009,10,06,09,33,10.40
2009,10,06,09,34,10.60
2009,10,06,09,35,10.70
2009,10,06,09,36,10.80
2009,10,06,09,37,10.90
2009,10,06,09,38,11.10
2009,10,06,09,39,11.20
2009,10,06,09,40,11.30
2009,10,06,09,41,11.40
2009,10,06,09,42,11.50
2009,10,06,09,43,11.60
2009,10,06,09,44,11.60
2009,10,06,09,45,11.70
2009,10,06,09,46,11.80
2009,10,06,09,47,11.80
2009,10,06,09,48,11.90
2009,10,06,09,49,11.90
2009,10,06,09,50,12.00
2009,10,06,09,51,12.00
2009,10,06,09,52,12.00
2009,10,06,09,53,12.00
2009,10,06,09,54,12.00
2009,10,06,09,55,12.10
2009,10,06,09,56,12.10
2009,10,06,09,57,12.20
2009,10,06,09,58,12.30
2009,10,06,09,59,12.30
2009,10,06,10,00,12.40
2009,10,06,10,01,12.50
2009,10,06,10,02,12.60
2009,10,06,10,03,12.60
2009,10,06,10,04,12.60
2009,10,06,10,05,12.70
2009,10,06,10,06,12.80
2009,10,06,10,07,12.80
2009,10,06,10,08,12.80
2009,10,06,10,09,12.90
2009,10,06,10,10,13.00
2009,10,06,10,11,13.00
2009,10,06,10,12,13.00
2009,10,06,10,13,13.00
2009,10,06,10,14,13.00
2009,10,06,10,15,12.90
2009,10,06,10,16,12.80
2009,10,06,10,17,12.80
2009,10,06,10,18,12.80
2009,10,06,10,19,12.70
2009,10,06,10,20,12.70
2009,10,06,10,21,12.70
2009,10,06,10,22,12.80
2009,10,06,10,23,12.80
2009,10,06,10,24,13.00
2009,10,06,10,25,13.00
2009,10,06,10,26,13.10
2009,10,06,10,27,13.10
2009,10,06,10,28,13.10
2009,10,06,10,29,13.20
2009,10,06,10,30,13.20
2009,10,06,10,31,13.30
2009,10,06,10,32,13.40
2009,10,06,10,33,13.40
2009,10,06,10,34,13.40
2009,10,06,10,35,13.50
2009,10,06,10,36,13.60
2009,10,06,10,37,13.70
2009,10,06,10,38,13.70
2009,10,06,10,39,13.90
2009,10,06,10,40,14.00
2009,10,06,10,41,14.10
2009,10,06,10,42,14.20
2009,10,06,10,43,14.20
2009,10,06,10,44,14.20
2009,10,06,10,45,14.30
2009,10,06,10,46,14.30
2009,10,06,10,47,14.40
2009,10,06,10,48,14.40
2009,10,06,10,49,14.40
2009,10,06,10,50,14.50
2009,10,06,10,51,14.50
2009,10,06,10,52,14.60
2009,10,06,10,53,14.60
2009,10,06,10,54,14.70
2009,10,06,10,55,14.70
2009,10,06,10,56,14.80
2009,10,06,10,57,14.80
2009,10,06,10,58,14.80
2009,10,06,10,59,14.80
2009,10,06,11,00,14.70
2009,10,06,11,01,14.50
2009,10,06,11,02,14.20
2009,10,06,11,03,14.00
2009,10,06,11,04,13.90
2009,10,06,11,05,13.90
2009,10,06,11,06,14.00
2009,10,06,11,07,13.90
2009,10,06,11,08,13.90
2009,10,06,11,09,13.80
2009,10,06,11,10,13.80
2009,10,06,11,11,13.80
2009,10,06,11,12,13.90
2009,10,06,11,13,14.00
2009,10,06,11,14,14.10
2009,10,06,11,15,14.20
2009,10,06,11,16,14.20
2009,10,06,11,17,14.30
2009,10,06,11,18,14.30
2009,10,06,11,19,14.40
2009,10,06,11,20,14.40
2009,10,06,11,21,14.50
2009,10,06,11,22,14.60
2009,10,06,11,23,14.60
2009,10,06,11,24,14.60
2009,10,06,11,25,14.60
2009,10,06,11,26,14.60
2009,10,06,11,27,14.60
2009,10,06,11,28,14.70
2009,10,06,11,29,14.80
2009,10,06,11,30,14.80
2009,10,06,11,31,14.80
2009,10,06,11,32,14.80
2009,10,06,11,33,14.80
2009,10,06,11,34,14.80
2009,10,06,11,35,14.80
2009,10,06,11,36,14.80
2009,10,06,11,37,14.60
2009,10,06,11,38,14.40
2009,10,06,11,39,14.10
2009,10,06,11,40,13.90
2009,10,06,11,41,13.90
2009,10,06,11,42,13.80
2009,10,06,11,43,13.90
2009,10,06,11,44,14.00
2009,10,06,11,45,13.90
2009,10,06,11,46,13.70
2009,10,06,11,47,13.70
2009,10,06,11,48,13.70
2009,10,06,11,49,13.70
2009,10,06,11,50,13.70
2009,10,06,11,51,13.70
2009,10,06,11,52,13.70
2009,10,06,11,53,13.70
2009,10,06,11,54,13.60
2009,10,06,11,55,13.50
2009,10,06,11,56,13.50
2009,10,06,11,57,13.50
2009,10,06,11,58,13.50
2009,10,06,11,59,13.30
2009,10,06,12,00,13.10
2009,10,06,12,01,13.00
2009,10,06,12,02,13.00
2009,10,06,12,03,13.00
2009,10,06,12,04,13.00
2009,10,06,12,05,13.00
2009,10,06,12,06,12.90
2009,10,06,12,07,12.80
2009,10,06,12,08,12.80
2009,10,06,12,09,12.80
2009,10,06,12,10,12.80
2009,10,06,12,11,12.60
2009,10,06,12,12,12.60
2009,10,06,12,13,12.50
2009,10,06,12,14,12.40
2009,10,06,12,15,12.40
2009,10,06,12,16,12.40
2009,10,06,12,17,12.40
2009,10,06,12,18,12.40
2009,10,06,12,19,12.40
2009,10,06,12,20,12.40
2009,10,06,12,21,12.40
2009,10,06,12,22,12.50
2009,10,06,12,23,12.60
2009,10,06,12,24,12.70
2009,10,06,12,25,12.80
2009,10,06,12,26,12.90
2009,10,06,12,27,12.90
2009,10,06,12,28,13.00
2009,10,06,12,29,13.10
2009,10,06,12,30,13.20
2009,10,06,12,31,13.20
2009,10,06,12,32,13.30
2009,10,06,12,33,13.30
2009,10,06,12,34,13.40
2009,10,06,12,35,13.40
2009,10,06,12,36,13.40
2009,10,06,12,37,13.40
2009,10,06,12,38,13.40
2009,10,06,12,39,13.40
2009,10,06,12,40,13.30
2009,10,06,12,41,13.30
2009,10,06,12,42,13.50
2009,10,06,12,43,13.60
2009,10,06,12,44,13.60
2009,10,06,12,45,13.60
2009,10,06,12,46,13.60
2009,10,06,12,47,13.60
2009,10,06,12,48,13.60
2009,10,06,12,49,13.50
2009,10,06,12,50,13.50
2009,10,06,12,51,13.50
2009,10,06,12,52,13.50
2009,10,06,12,53,13.50
2009,10,06,12,54,13.50
2009,10,06,12,55,13.60
2009,10,06,12,56,13.50
2009,10,06,12,57,13.30
2009,10,06,12,58,13.20
2009,10,06,12,59,13.30
2009,10,06,13,00,13.30
2009,10,06,13,01,13.50
2009,10,06,13,02,13.60
2009,10,06,13,03,13.60
2009,10,06,13,04,13.70
2009,10,06,13,05,13.70
2009,10,06,13,06,13.70
2009,10,06,13,07,13.70
2009,10,06,13,08,13.70
2009,10,06,13,09,13.70
2009,10,06,13,10,13.70
2009,10,06,13,11,13.70
2009,10,06,13,12,13.60
2009,10,06,13,13,13.70
2009,10,06,13,14,13.80
2009,10,06,13,15,13.80
2009,10,06,13,16,13.70
2009,10,06,13,17,13.60
2009,10,06,13,18,13.40
2009,10,06,13,19,13.20
2009,10,06,13,20,13.00
2009,10,06,13,21,12.90
2009,10,06,13,22,12.90
2009,10,06,13,23,12.80
2009,10,06,13,24,12.80
2009,10,06,13,25,12.80
2009,10,06,13,26,12.90
2009,10,06,13,27,12.80
2009,10,06,13,28,12.80
2009,10,06,13,29,12.90
2009,10,06,13,30,12.90
2009,10,06,13,31,12.80
2009,10,06,13,32,12.80
2009,10,06,13,33,12.80
2009,10,06,13,34,12.80
2009,10,06,13,35,12.80
2009,10,06,13,36,12.80
2009,10,06,13,37,12.70
2009,10,06,13,38,12.70
2009,10,06,13,39,12.70
2009,10,06,13,40,12.60
2009,10,06,13,41,12.60
2009,10,06,13,42,12.50
2009,10,06,13,43,12.50
2009,10,06,13,44,12.30
2009,10,06,13,45,12.30
2009,10,06,13,46,12.30
2009,10,06,13,47,12.30
2009,10,06,13,48,12.50
2009,10,06,13,49,12.50
2009,10,06,13,50,12.60
2009,10,06,13,51,12.70
2009,10,06,13,52,12.80
2009,10,06,13,53,12.90
2009,10,06,13,54,13.00
2009,10,06,13,55,13.00
2009,10,06,13,56,13.10
2009,10,06,13,57,13.20
2009,10,06,13,58,13.30
2009,10,06,13,59,13.30
2009,10,06,14,00,13.30
2009,10,06,14,01,13.30
2009,10,06,14,02,13.30
2009,10,06,14,03,13.20
2009,10,06,14,04,13.10
2009,10,06,14,05,13.00
2009,10,06,14,06,12.90
2009,10,06,14,07,12.90
2009,10,06,14,08,12.90
2009,10,06,14,09,12.90
2009,10,06,14,10,12.90
2009,10,06,14,11,13.00
2009,10,06,14,12,13.00
2009,10,06,14,13,13.10
2009,10,06,14,14,13.10
2009,10,06,14,15,13.20
2009,10,06,14,16,13.30
2009,10,06,14,17,13.30
2009,10,06,14,18,13.40
2009,10,06,14,19,13.40
2009,10,06,14,20,13.50
2009,10,06,14,21,13.50
2009,10,06,14,22,13.60
2009,10,06,14,23,13.70
2009,10,06,14,24,13.80
2009,10,06,14,25,13.90
2009,10,06,14,26,13.90
2009,10,06,14,27,14.00
2009,10,06,14,28,14.20
2009,10,06,14,29,14.20
2009,10,06,14,30,14.20
2009,10,06,14,31,14.20
2009,10,06,14,32,14.00
2009,10,06,14,33,14.00
2009,10,06,14,34,14.00
2009,10,06,14,35,14.00
2009,10,06,14,36,14.00
2009,10,06,14,37,14.00
2009,10,06,14,38,14.10
2009,10,06,14,39,14.10
2009,10,06,14,40,14.10
2009,10,06,14,41,14.10
2009,10,06,14,42,14.10
2009,10,06,14,43,14.00
2009,10,06,14,44,13.90
2009,10,06,14,45,13.80
2009,10,06,14,46,13.70
2009,10,06,14,47,13.60
2009,10,06,14,48,13.50
2009,10,06,14,49,13.30
2009,10,06,14,50,13.10
2009,10,06,14,51,13.00
2009,10,06,14,52,12.90
2009,10,06,14,53,12.90
2009,10,06,14,54,12.90
2009,10,06,14,55,12.80
2009,10,06,14,56,12.80
2009,10,06,14,57,12.80
2009,10,06,14,58,12.70
2009,10,06,14,59,12.60
2009,10,06,15,00,12.60
2009,10,06,15,01,12.60
2009,10,06,15,02,12.50
2009,10,06,15,03,12.50
2009,10,06,15,04,12.60
2009,10,06,15,05,12.60
2009,10,06,15,06,12.70
2009,10,06,15,07,12.80
2009,10,06,15,08,12.80
2009,10,06,15,09,12.90
2009,10,06,15,10,12.90
2009,10,06,15,11,12.80
2009,10,06,15,12,12.80
2009,10,06,15,13,12.80
2009,10,06,15,14,12.90
2009,10,06,15,15,12.80
2009,10,06,15,16,12.80
2009,10,06,15,17,12.80
2009,10,06,15,18,13.00
2009,10,06,15,19,13.10
2009,10,06,15,20,13.10
2009,10,06,15,21,13.10
2009,10,06,15,22,13.00
2009,10,06,15,23,13.00
2009,10,06,15,24,12.90
2009,10,06,15,25,12.80
2009,10,06,15,26,12.70
2009,10,06,15,27,12.70
2009,10,06,15,28,12.70
2009,10,06,15,29,12.70
2009,10,06,15,30,12.70
2009,10,06,15,31,12.70
2009,10,06,15,32,12.70
2009,10,06,15,33,12.80
2009,10,06,15,34,12.80
2009,10,06,15,35,12.80
2009,10,06,15,36,12.80
2009,10,06,15,37,12.80
2009,10,06,15,38,12.80
2009,10,06,15,39,12.80
2009,10,06,15,40,12.80
2009,10,06,15,41,12.80
2009,10,06,15,42,12.80
2009,10,06,15,43,12.80
2009,10,06,15,44,12.80
2009,10,06,15,45,12.80
2009,10,06,15,46,12.70
2009,10,06,15,47,12.70
2009,10,06,15,48,12.60
2009,10,06,15,49,12.60
2009,10,06,15,50,12.60
2009,10,06,15,51,12.70
2009,10,06,15,52,12.70
2009,10,06,15,53,12.70
2009,10,06,15,54,12.70
2009,10,06,15,55,12.70
2009,10,06,15,56,12.70
2009,10,06,15,57,12.60
2009,10,06,15,58,12.60
2009,10,06,15,59,12.60
2009,10,06,16,00,12.50
2009,10,06,16,01,12.50
2009,10,06,16,02,12.50
2009,10,06,16,03,12.40
2009,10,06,16,04,12.40
2009,10,06,16,05,12.40
2009,10,06,16,06,12.40
2009,10,06,16,07,12.40
2009,10,06,16,08,12.40
2009,10,06,16,09,12.40
2009,10,06,16,10,12.50
2009,10,06,16,11,12.40
2009,10,06,16,12,12.40
2009,10,06,16,13,12.40
2009,10,06,16,14,12.40
2009,10,06,16,15,12.30
2009,10,06,16,16,12.30
2009,10,06,16,17,12.30
2009,10,06,16,18,12.30
2009,10,06,16,19,12.30
2009,10,06,16,20,12.30
2009,10,06,16,21,12.30
2009,10,06,16,22,12.30
2009,10,06,16,23,12.30
2009,10,06,16,24,12.30
2009,10,06,16,25,12.30
2009,10,06,16,26,12.30
2009,10,06,16,27,12.30
2009,10,06,16,28,12.30
2009,10,06,16,29,12.30
2009,10,06,16,30,12.30
2009,10,06,16,31,12.30
2009,10,06,16,32,12.30
2009,10,06,16,33,12.30
2009,10,06,16,34,12.30
2009,10,06,16,35,12.30
2009,10,06,16,36,12.30
2009,10,06,16,37,12.30
2009,10,06,16,38,12.30
2009,10,06,16,39,12.30
2009,10,06,16,40,12.30
2009,10,06,16,41,12.40
2009,10,06,16,42,12.40
2009,10,06,16,43,12.50
2009,10,06,16,44,12.50
2009,10,06,16,45,12.50
2009,10,06,16,46,12.50
2009,10,06,16,47,12.60
2009,10,06,16,48,12.70
2009,10,06,16,49,12.70
2009,10,06,16,50,12.80
2009,10,06,16,51,12.80
2009,10,06,16,52,12.80
2009,10,06,16,53,12.90
2009,10,06,16,54,12.90
2009,10,06,16,55,12.90
2009,10,06,16,56,12.90
2009,10,06,16,57,12.90
2009,10,06,16,58,13.00
2009,10,06,16,59,13.00
2009,10,06,17,00,13.10
2009,10,06,17,01,13.10
2009,10,06,17,02,13.20
2009,10,06,17,03,13.20
2009,10,06,17,04,13.20
2009,10,06,17,05,13.20
2009,10,06,17,06,13.20
2009,10,06,17,07,13.30
2009,10,06,17,08,13.30
2009,10,06,17,09,13.30
2009,10,06,17,10,13.30
2009,10,06,17,11,13.30
2009,10,06,17,12,13.40
2009,10,06,17,13,13.40
2009,10,06,17,14,13.40
2009,10,06,17,15,13.50
2009,10,06,17,16,13.40
2009,10,06,17,17,13.50
2009,10,06,17,18,13.50
2009,10,06,17,19,13.50
2009,10,06,17,20,13.60
2009,10,06,17,21,13.60
2009,10,06,17,22,13.60
2009,10,06,17,23,13.60
2009,10,06,17,24,13.60
2009,10,06,17,25,13.50
2009,10,06,17,26,13.50
2009,10,06,17,27,13.50
2009,10,06,17,28,13.50
2009,10,06,17,29,13.50
2009,10,06,17,30,13.50
2009,10,06,17,31,13.40
2009,10,06,17,32,13.40
2009,10,06,17,33,13.40
2009,10,06,17,34,13.30
2009,10,06,17,35,13.30
2009,10,06,17,36,13.30
2009,10,06,17,37,13.30
2009,10,06,17,38,13.20
2009,10,06,17,39,13.20
2009,10,06,17,40,13.20
2009,10,06,17,41,13.20
2009,10,06,17,42,13.10
2009,10,06,17,43,13.10
2009,10,06,17,44,13.10